Home   Weather   Kolonia   Past weeks

Flag for Micronesia Past Weather in Kolonia, Pohnpei, Micronesia — Yesterday and Last 2 Weeks

Now
80 °F

Partly cloudy.


Feels Like: 85 °F
Forecast: 77 / 86 °F
Wind: 3 mph from South

Location: Pohnpei

Current Time: Dec 10, 2016 at 4:27:03 am

Latest Report: Dec 10, 2016 at 12:50 am


Visibility: 15 mi

Pressure: 29.78 "Hg

Humidity: 81%

Dew Point: 74 °F

Location of KoloniaLocation

Past Weather in Kolonia — Graph

°F

Kolonia Temperature Yesterday

Maximum temperature yesterday: 88 °F (at 11:51 am)
Minimum temperature yesterday: 75 °F (at 5:52 am)
Average temperature yesterday: 82 °F

High & Low Weather Summary for the Past Weeks

 TemperatureHumidityPressure
High90 °F (Nov 28, 12:52 pm)99% (Dec 9, 5:52 am)29.90 "Hg (Dec 9, 5:52 am)
Low74 °F (Dec 1, 4:53 pm)57% (Dec 9, 11:51 am)29.70 "Hg (Dec 9, 2:50 pm)
Average82 °F83%29.80 "Hg
* Reported Nov 25 12:50 am — Dec 10 12:50 am, Kolonia, Weather by CustomWeather, © 2016

Note: Actual official high and low records may vary slightly from our data, if they occured in-between our weather recording intervals... More about our weather records

Advertising

Kolonia Weather History for the Previous 24 Hours

Scroll right to see more
 ConditionsComfort  
Time TempWeatherWind HumidityBarometerVisibility
12:50 am
Sat, Dec 10
80 °FPartly cloudy.3 mph81%29.78 "Hg15 mi
11:53 pm
Fri, Dec 9
80 °FPassing clouds.9 mph81%29.79 "Hg15 mi
10:53 pm82 °FPassing clouds.5 mph79%29.80 "Hg15 mi
9:58 pm82 °FPassing clouds.9 mph75%29.80 "Hg15 mi
8:55 pm82 °FPartly cloudy.7 mph75%29.80 "Hg15 mi
7:55 pm82 °FPassing clouds.9 mph78%29.78 "Hg15 mi
6:56 pm83 °FPassing clouds.6 mph73%29.76 "Hg15 mi
5:53 pm83 °FBroken clouds.6 mph71%29.75 "Hg15 mi
4:51 pm85 °FBroken clouds.12 mph70%29.73 "Hg15 mi
3:54 pm87 °FOvercast.6 mph67%29.72 "Hg15 mi
2:50 pm88 °FPartly sunny.7 mph63%29.70 "Hg15 mi
1:50 pm87 °FBroken clouds.8 mph64%29.71 "Hg15 mi
12:50 pm87 °FBroken clouds.10 mph71%29.75 "Hg15 mi
11:51 am88 °FBroken clouds.7 mph57%29.78 "Hg15 mi
10:50 am87 °FBroken clouds.6 mph67%29.81 "Hg15 mi
9:50 am86 °FMore clouds than sun.5 mph70%29.82 "Hg15 mi
8:50 am85 °FBroken clouds.3 mph81%29.83 "Hg15 mi
7:54 am82 °FMore clouds than sun.3 mph81%29.82 "Hg15 mi
6:51 am75 °FMore clouds than sun.3 mph99%29.79 "Hg15 mi
5:52 am75 °FPassing clouds.5 mph99%29.77 "Hg15 mi
Weather by CustomWeather, © 2016

See weather overviewHow to use our weather pages